Location: Innerarity Island Observatory
(30.3139°N, 87.4867°W)
Time: 20:32:51
(UTC-05:00)

JAS-2 - Visible Passes

Search period start: 03 September 2015 00:00
Search period end: 13 September 2015 00:00
Orbit: 801 x 1321 km, 98.5° (Epoch: 02 September)

Date Brightness Start Highest point End Pass type
(mag) Time Alt. Az. Time Alt. Az. Time Alt. Az.
03 Sep 11.3 02:52:38 10° NE 02:57:10 25° E 02:57:10 25° E visible
03 Sep 10.0 04:36:57 10° N 04:43:04 38° WNW 04:43:38 37° W visible
04 Sep 9.7 03:41:41 10° NNE 03:47:44 68° ENE 03:47:44 68° ENE visible
04 Sep 11.2 05:29:12 10° NNW 05:32:30 14° WNW 05:34:12 12° W visible
05 Sep 11.5 02:48:01 10° NE 02:51:49 22° ENE 02:51:49 22° ENE visible
05 Sep 9.9 04:32:04 10° N 04:38:10 41° WNW 04:38:17 41° WNW visible
06 Sep 9.9 03:36:53 10° NNE 03:42:23 58° NE 03:42:23 58° NE visible
06 Sep 11.1 05:24:08 10° NNW 05:27:38 15° WNW 05:28:50 14° WNW visible
07 Sep 11.6 02:43:24 10° NE 02:46:28 19° ENE 02:46:28 19° ENE visible
07 Sep 9.9 04:27:11 10° N 04:32:56 43° WNW 04:32:56 43° WNW visible
08 Sep 10.2 03:32:05 10° NNE 03:37:01 49° NE 03:37:01 49° NE visible
08 Sep 11.0 05:19:04 10° NNW 05:22:45 16° WNW 05:23:29 15° WNW visible
09 Sep 11.8 02:38:50 10° NE 02:41:06 16° ENE 02:41:06 16° ENE visible
09 Sep 9.9 04:22:17 10° N 04:27:34 45° NW 04:27:34 45° NW visible
10 Sep 10.5 03:27:17 10° NNE 03:31:39 41° NE 03:31:39 41° NE visible
10 Sep 10.9 05:14:02 10° NNW 05:17:51 16° WNW 05:18:07 16° WNW visible
11 Sep 12.0 02:34:18 10° NE 02:35:44 14° ENE 02:35:44 14° ENE visible
11 Sep 9.9 04:17:24 10° N 04:22:12 44° NW 04:22:12 44° NW visible
12 Sep 10.7 03:22:29 10° NNE 03:26:17 35° NE 03:26:17 35° NE visible
12 Sep 10.9 05:08:59 10° NNW 05:12:45 17° WNW 05:12:45 17° WNW visible
